Date,TemperatureHighF,TemperatureAvgF,TemperatureLowF,DewpointHighF,DewpointAvgF,DewpointLowF,HumidityHigh,HumidityAvg,HumidityLow,PressureMaxIn,PressureMinIn,WindSpeedMaxMPH,WindSpeedAvgMPH,GustSpeedMaxMPH,PrecipitationSumIn
2013-1-1,33,30,25,33,30,24,100,100,100,30.19,30.05,8,-12,9,0.15
2013-1-2,27,21,15,24,18,-100,100,89,65,30.28,30.17,8,-6,8,0.04
2013-1-3,35,23,11,31,21,-100,100,94,83,30.36,30.22,7,-13,12,0.02
2013-1-4,34,30,27,29,27,-100,100,90,75,30.40,30.33,9,-25,11,0.01
2013-1-5,40,31,22,35,29,22,100,93,71,30.36,30.16,10,-12,10,0.02
2013-1-6,37,34,27,37,32,-100,100,95,90,30.39,30.06,12,-16,16,0.02
2013-2-9,44,35,26,33,30,26,100,81,62,30.40,30.15,8,3,10,0.29
2013-2-10,52,45,37,52,41,29,100,87,69,30.15,29.74,16,6,19,0.25
2013-2-11,54,46,39,54,39,32,100,78,63,30.08,29.74,17,7,18,0.25
2013-2-12,49,39,30,35,33,30,100,80,54,30.14,29.90,7,1,10,0.04
2013-6-17,89,76,66,77,72,66,100,87,60,29.97,29.85,15,3,21,0.44
2013-6-18,85,70,64,73,68,64,100,92,60,29.97,29.86,10,2,10,0.30
2013-6-19,83,72,64,70,66,64,100,84,55,30.09,29.96,9,3,9,0.15
2013-6-20,89,74,64,69,67,64,100,82,45,30.18,30.09,9,2,11,0.01
2013-6-22,90,80,72,76,73,70,100,81,55,30.15,30.04,12,5,18,0.00
2013-6-23,87,76,67,76,72,67,100,89,60,30.12,30.04,12,4,13,0.00
2013-6-24,81,75,72,77,74,71,100,98,85,30.14,30.04,7,4,9,0.00
2013-6-25,89,77,69,79,74,69,100,90,65,30.05,29.87,11,3,11,0.04
2013-6-26,82,70,66,79,70,66,100,99,90,29.99,29.75,10,3,15,2.88
2013-6-27,88,77,69,81,73,69,100,89,63,29.82,29.75,10,3,11,0.05
2013-6-28,86,78,71,77,69,63,100,74,48,29.76,29.63,10,5,15,0.07
2013-6-29,80,70,66,74,68,66,100,94,64,29.68,29.60,11,3,11,0.41
2013-6-30,79,68,65,72,67,65,100,98,70,29.85,29.67,12,3,14,0.48
2013-7-1,71,67,64,71,67,64,100,100,99,29.92,29.83,10,6,11,0.48
2013-7-2,79,71,65,72,68,65,100,93,69,30.01,29.92,8,4,10,0.00
2013-7-3,80,71,63,70,67,63,100,88,64,30.11,30.02,7,2,9,0.00
2013-7-4,75,70,64,75,70,64,100,100,98,30.14,30.06,9,2,9,0.00
2013-7-5,81,71,64,75,69,64,100,94,73,30.14,30.06,8,2,9,0.00
2013-7-6,77,71,67,73,70,67,100,97,83,30.12,30.05,8,2,9,0.12
2013-7-7,86,76,66,74,70,66,100,84,56,30.11,30.03,6,2,9,0.11
2013-7-8,88,76,69,77,73,69,100,91,65,30.14,30.03,9,2,9,0.01
2013-7-9,90,82,76,79,77,75,100,87,66,30.09,29.96,9,3,9,0.00
2013-7-10,85,78,69,81,73,-100,100,91,77,30.02,29.82,10,3,10,0.38
2013-7-11,80,73,67,75,66,62,100,80,56,30.04,29.94,13,6,16,0.38
2013-7-12,81,70,61,67,63,61,100,81,53,30.12,30.04,8,4,8,0.00
2013-7-13,83,74,63,71,67,63,100,80,58,30.10,30.02,10,4,14,0.00
2013-7-14,90,79,69,79,72,69,100,82,55,30.19,30.10,10,3,15,0.23
2013-7-15,90,79,72,78,74,71,100,86,56,30.29,30.19,9,2,13,0.01
2013-7-16,91,82,72,79,75,72,100,81,56,30.33,30.25,6,1,9,0.01
2013-7-17,91,82,75,80,77,74,100,85,58,30.34,30.17,9,2,9,0.00
2013-7-18,95,85,76,80,76,72,100,78,49,30.21,30.01,7,1,8,0.00
2013-7-19,91,82,76,81,77,74,100,86,59,30.04,29.88,9,3,11,0.00
2013-7-20,90,77,69,77,72,-100,100,90,61,29.94,29.88,21,4,21,0.56
2013-10-18,66,54,44,55,48,44,100,84,55,30.07,29.95,9,2,9,0.19
2013-10-19,53,48,44,50,46,42,100,93,66,30.05,29.91,8,2,13,0.24
2013-10-20,63,50,41,48,43,-100,100,80,56,30.07,29.98,12,4,13,0.24
2013-10-21,63,53,45,53,48,40,100,86,66,30.04,29.92,12,4,12,0.00
2013-10-22,53,46,34,46,38,34,100,76,53,30.11,29.84,8,2,10,0.01
2013-10-23,47,43,38,47,40,35,100,89,69,30.13,29.80,15,6,15,0.02
2013-10-24,40,38,35,40,36,30,100,92,74,30.37,30.12,11,3,12,0.02
2013-10-25,49,42,31,35,32,31,100,69,52,30.52,30.32,6,2,8,0.01
2013-10-26,58,44,33,46,37,31,94,77,60,30.31,29.98,11,3,14,0.00
2013-10-27,60,46,32,43,36,-100,100,76,48,30.15,30.06,4,0,5,0.00
2013-10-28,63,46,32,44,36,-100,100,78,43,30.32,30.12,8,0,8,0.00
2013-10-29,55,47,38,54,46,38,100,96,85,30.36,30.19,7,1,7,0.08
2013-10-30,68,60,53,68,60,53,100,100,100,30.19,29.98,7,2,7,0.33